Location: Feydey
(46.3431°N, 7.0106°E)
Time: 15:38:56
(UTC+00:00)

Iridium 2 - Pass Details

Date: 20 June 2021
Orbit: 502 x 511 km, 85.5° (Epoch: 02 August)

Event Time Altitude Azimuth Distance (km) Brightness Sun altitude
Exits shadow 22:12:28 44° 178° (S) 707 3.9 -17.8°
Maximum altitude 22:13:35 85° 93° (E) 514 3.5 -17.9°
Drops below altitude 10° 22:17:21 10° 6° (N) 1,726 7.4 -18.1°
Sets 22:19:29 0° 6° (N) 2,615 8.5 -18.2°
